Location: Irma
(52.9170°N, 111.2330°W)
Time: 03:22:25
(UTC-07:00)

Amateur Radio Satellites - All Passes

Search period start: 24 February 2017 02:52
Search period end: 25 February 2017 02:52
Location: Irma, 52.9170°N, 111.2330°W

Satellite Date Start Highest point End Downlink Frequencies (MHz)
Time Altitude Azimuth
FO-29 24 Feb 03:02:35 03:05:14 12° 331° (NNW) 03:07:52 435.910
KKS-1 24 Feb 03:04:24 03:08:29 38° 65° (ENE) 03:12:36 437.445
PCSat 24 Feb 03:06:33 03:10:06 18° 254° (WSW) 03:13:39 145.827
M-CUBED/EXP-1 PRIME 24 Feb 03:07:04 03:09:14 17° 53° (NE) 03:11:23 437.505
SO-50 24 Feb 03:11:57 03:15:16 19° 357° (N) 03:18:34 436.795
CUBESAT XI-V 24 Feb 03:17:37 03:21:46 33° 63° (ENE) 03:25:54 437.345
ITUPSAT 1 24 Feb 03:18:07 03:22:11 27° 267° (W) 03:26:17 437.325
BEESAT 24 Feb 03:26:08 03:29:55 23° 269° (W) 03:33:43 436.000
STARS 24 Feb 03:42:36 03:46:43 42° 66° (ENE) 03:50:52 437.465
Oscar 19 24 Feb 03:59:40 04:03:15 19° 307° (NW) 04:06:50 437.125/150
MOZHAYETS 4 24 Feb 03:59:52 04:03:50 27° 267° (W) 04:07:48
RS-15 24 Feb 04:20:50 04:31:21 36° 254° (WSW) 04:41:35 29.354- 29.394
ITAMSAT 1 24 Feb 04:28:59 04:34:12 64° 291° (WNW) 04:39:22 435.822/435.867
Gurwin Techsat 1B 24 Feb 04:32:48 04:36:28 19° 308° (NW) 04:40:08 435.225
AO-7 24 Feb 04:37:11 04:45:35 82° 110° (ESE) 04:53:54 .
M-CUBED/EXP-1 PRIME 24 Feb 04:40:15 04:43:27 49° 253° (WSW) 04:46:39 437.505
KKS-1 24 Feb 04:41:09 04:45:06 32° 264° (W) 04:49:06 437.445
STRAND 1 24 Feb 04:46:33 04:49:16 15° 49° (NE) 04:52:00 437.568
SO-50 24 Feb 04:53:18 04:57:08 26° 21° (NNE) 05:00:55 436.795
CUBESAT XI-V 24 Feb 04:54:41 04:59:04 40° 263° (W) 05:03:28 437.345
DOVE 4 24 Feb 05:04:57 05:05:52 10° 84° (E) 05:06:47 437.250
STARS 24 Feb 05:19:26 05:23:13 28° 266° (W) 05:27:01 437.465
CUTE-I 24 Feb 05:27:37 05:30:47 16° 86° (E) 05:33:55 437.470
AO-85 24 Feb 05:30:51 05:35:12 58° 128° (SE) 05:39:17 145.980
KAITUO 1B 24 Feb 05:38:24 05:40:07 13° 87° (E) 05:41:51 145.475/437.950
XW-2F 24 Feb 05:40:17 05:42:38 15° 89° (E) 05:44:58 145.980 - 146.000
XW-2D 24 Feb 05:43:49 05:46:29 18° 90° (E) 05:49:06 145.860 - 145.880
XW-2B 24 Feb 05:48:43 05:51:32 19° 91° (E) 05:54:19 145.730 - 145.750
XW-2C 24 Feb 05:57:05 06:00:13 23° 93° (E) 06:03:18 145.795 - 145.815
ITAMSAT 1 24 Feb 06:09:53 06:12:45 15° 312° (NW) 06:15:37 435.822/435.867
LilacSat-2 24 Feb 06:12:10 06:15:44 33° 96° (E) 06:19:13 437.200
NUDT-PHONESAT 24 Feb 06:13:52 06:17:10 28° 95° (E) 06:20:26 437.300
STRAND 1 24 Feb 06:22:27 06:27:32 64° 69° (ENE) 06:32:40 437.568
AO-7 24 Feb 06:30:28 06:37:42 35° 313° (NW) 06:44:54 .
SO-50 24 Feb 06:33:42 06:38:16 76° 44° (NE) 06:42:45 436.795
DOVE 4 24 Feb 06:39:47 06:44:22 68° 102° (ESE) 06:49:12 437.250
HO-68 24 Feb 06:43:29 06:48:29 20° 86° (E) 06:53:26 435.675
CUTE-I 24 Feb 07:06:15 07:11:41 82° 106° (ESE) 07:17:05 437.470
KAITUO 1B 24 Feb 07:10:51 07:14:40 75° 287° (WNW) 07:18:25 145.475/437.950
SEEDS 24 Feb 07:11:33 07:13:53 14° 87° (E) 07:16:11 437.485
AO-85 24 Feb 07:11:56 07:15:50 32° 328° (NNW) 07:19:31 145.980
XW-2F 24 Feb 07:13:23 07:17:11 61° 288° (WNW) 07:20:57 145.980 - 146.000
XW-2D 24 Feb 07:17:14 07:21:00 53° 290° (WNW) 07:24:44 145.860 - 145.880
O/OREOS (USA 219) 24 Feb 07:22:15 07:26:15 29° 46° (NE) 07:30:16 437.305
XW-2B 24 Feb 07:22:17 07:26:01 48° 290° (WNW) 07:29:42 145.730 - 145.750
BEESAT 3 24 Feb 07:29:15 07:33:07 58° 127° (SE) 07:37:02 437.485
XW-2C 24 Feb 07:30:57 07:34:35 40° 292° (WNW) 07:38:10 145.795 - 145.815
CUTE 1.7 + AOD 2 24 Feb 07:46:11 07:50:14 41° 98° (E) 07:54:14 437.475
LilacSat-2 24 Feb 07:46:36 07:49:57 28° 295° (WNW) 07:53:16 437.200
XW-2A 24 Feb 07:47:37 07:51:05 61° 102° (ESE) 07:54:30 145.665 - 145.685
NUDT-PHONESAT 24 Feb 07:47:44 07:51:08 32° 294° (WNW) 07:54:31 437.300
CUBEBUG 2 24 Feb 07:50:50 07:54:52 27° 92° (E) 07:58:53 437.445
STRAND 1 24 Feb 08:03:03 08:07:10 24° 269° (W) 08:11:18 437.568
BEESAT 2 24 Feb 08:04:34 08:08:28 57° 128° (SE) 08:12:26 435.950
FO-29 24 Feb 08:04:59 08:10:39 24° 46° (NE) 08:16:32 435.910
UNISAT 6 24 Feb 08:05:23 08:08:37 19° 56° (ENE) 08:11:55 437.425
TIGRISAT 24 Feb 08:06:12 08:09:21 19° 56° (NE) 08:12:33 435.000
AO-73 24 Feb 08:08:59 08:11:43 15° 86° (E) 08:14:24 145.935
SO-50 24 Feb 08:14:53 08:18:16 21° 244° (WSW) 08:21:37 436.795
Oscar 11 24 Feb 08:17:27 08:20:01 15° 87° (E) 08:22:33 .
PRISM 24 Feb 08:17:46 08:21:38 43° 67° (ENE) 08:25:30 437.425
DOVE 4 24 Feb 08:18:17 08:21:43 21° 300° (WNW) 08:25:17 437.250
AO-7 24 Feb 08:23:52 08:28:07 15° 339° (NNW) 08:32:21 .
HO-68 24 Feb 08:30:09 08:37:22 80° 107° (ESE) 08:44:32 435.675
UWE-3 24 Feb 08:30:49 08:35:13 39° 96° (E) 08:39:35 435.000/436.395/437.385
AAUSAT CUBESAT 2 24 Feb 08:39:01 08:43:03 50° 99° (E) 08:47:02 437.432
SEEDS 24 Feb 08:45:55 08:50:08 77° 285° (WNW) 08:54:17 437.485
KAITUO 1B 24 Feb 08:47:00 08:48:00 11° 306° (NW) 08:49:00 145.475/437.950
CUTE-I 24 Feb 08:47:07 08:51:10 22° 306° (NW) 08:55:13 437.470
Tancredo 1 24 Feb 08:53:43 08:55:45 15° 143° (SE) 08:57:46 437.200
AO-85 24 Feb 08:54:43 08:57:21 16° 352° (N) 08:59:55 145.980
ZACube-1 24 Feb 08:54:48 08:59:09 40° 97° (E) 09:03:26 437.345
O/OREOS (USA 219) 24 Feb 09:01:28 09:05:56 53° 247° (WSW) 09:10:23 437.305
BEESAT 3 24 Feb 09:07:26 09:10:59 30° 329° (NNW) 09:14:34 437.485
XW-2A 24 Feb 09:21:27 09:23:28 15° 300° (WNW) 09:25:27 145.665 - 145.685
EO-79 24 Feb 09:21:57 09:23:38 12° 52° (NE) 09:25:19 145.935-145.965
CUTE 1.7 + AOD 2 24 Feb 09:22:20 09:25:56 27° 297° (WNW) 09:29:29 437.475
CUBEBUG 2 24 Feb 09:27:06 09:31:44 50° 291° (WNW) 09:36:20 437.445
YUBILEINY 24 Feb 09:36:22 09:43:42 31° 79° (E) 09:51:01 435.215
POLYITAN 1 24 Feb 09:37:54 09:40:33 16° 56° (NE) 09:43:14 437.675
NANOSAT C BR1 24 Feb 09:38:44 09:41:14 15° 55° (NE) 09:43:44 145.865
UNISAT 6 24 Feb 09:40:17 09:44:49 76° 256° (WSW) 09:49:29 437.425
QB50P2 24 Feb 09:40:32 09:43:25 18° 57° (ENE) 09:46:19 145.880/145.840
TIGRISAT 24 Feb 09:40:57 09:45:30 79° 257° (WSW) 09:50:10 435.000
BEESAT 2 24 Feb 09:42:54 09:46:31 31° 329° (NNW) 09:50:09 435.950
AO-73 24 Feb 09:43:56 09:48:34 82° 285° (WNW) 09:53:04 145.935
FO-29 24 Feb 09:47:11 09:54:27 72° 69° (ENE) 10:02:17 435.910
Oscar 11 24 Feb 09:52:21 09:56:43 77° 285° (WNW) 10:01:01 .
PRISM 24 Feb 09:53:47 09:57:06 24° 266° (W) 10:00:26 437.425
ISS 24 Feb 09:59:57 10:03:00 35° 156° (SSE) 10:06:03 437.550
UWE-3 24 Feb 10:07:23 10:11:38 34° 296° (WNW) 10:15:50 435.000/436.395/437.385
AIST 2D 24 Feb 10:12:53 10:16:11 36° 69° (ENE) 10:19:31 435.315
BUGSAT 1 24 Feb 10:14:28 10:16:11 12° 53° (NE) 10:17:56 437.445
AO-7 24 Feb 10:14:47 10:17:31 12° 6° (N) 10:20:15 .
AAUSAT CUBESAT 2 24 Feb 10:15:01 10:18:15 22° 299° (WNW) 10:21:28 437.432
HO-68 24 Feb 10:18:28 10:24:31 31° 309° (NW) 10:30:32 435.675
DELFI C3 24 Feb 10:22:31 10:26:28 81° 101° (E) 10:30:24 145.870
SEEDS 24 Feb 10:23:15 10:25:07 13° 306° (NW) 10:26:59 437.485
Tancredo 1 24 Feb 10:28:21 10:31:30 47° 162° (SSE) 10:34:39 437.200
Oscar 19 24 Feb 10:29:49 10:30:13 10° 43° (NE) 10:30:38 437.125/150
ZACube-1 24 Feb 10:31:16 10:35:21 32° 296° (WNW) 10:39:22 437.345
AO-85 24 Feb 10:36:15 10:39:10 19° 17° (NNE) 10:42:01 145.980
DUCHIFAT 1 24 Feb 10:45:09 10:49:12 49° 69° (ENE) 10:53:19 145.980
BEESAT 3 24 Feb 10:47:14 10:49:44 16° 352° (N) 10:52:14 437.485
EO-79 24 Feb 10:54:25 10:58:38 69° 72° (ENE) 11:02:53 145.935-145.965
Gurwin Techsat 1B 24 Feb 11:03:49 11:05:49 12° 45° (NE) 11:07:50 435.225
CUBEBUG 2 24 Feb 11:06:14 11:07:19 11° 311° (NW) 11:08:25 437.445
POLYITAN 1 24 Feb 11:11:33 11:15:48 82° 258° (WSW) 11:20:07 437.675
NANOSAT C BR1 24 Feb 11:12:08 11:16:22 87° 253° (WSW) 11:20:39 145.865
QB50P2 24 Feb 11:14:30 11:18:44 73° 257° (WSW) 11:23:02 145.880/145.840
UNISAT 6 24 Feb 11:20:47 11:22:23 12° 277° (W) 11:24:00 437.425
TIGRISAT 24 Feb 11:21:09 11:23:00 12° 276° (W) 11:24:52 435.000
AO-73 24 Feb 11:21:28 11:24:06 15° 306° (NW) 11:26:43 145.935
BEESAT 2 24 Feb 11:22:52 11:25:25 16° 352° (N) 11:27:59 435.950
Oscar 11 24 Feb 11:30:00 11:32:08 14° 306° (NW) 11:34:15 .
YUBILEINY 24 Feb 11:30:52 11:39:43 78° 283° (WNW) 11:48:34 435.215
FO-29 24 Feb 11:33:39 11:40:06 33° 271° (W) 11:47:00 435.910
ISS 24 Feb 11:35:57 11:39:15 70° 176° (S) 11:42:32 437.550
ESTCUBE 1 24 Feb 11:40:12 11:44:30 43° 98° (E) 11:48:46 437.505/2401.250
AIST 2D 24 Feb 11:46:44 11:49:33 22° 267° (W) 11:52:24 435.315
BUGSAT 1 24 Feb 11:46:47 11:50:50 75° 74° (ENE) 11:54:59 437.445
DELFI C3 24 Feb 11:58:34 12:00:45 15° 303° (WNW) 12:02:55 145.870
50 SAT 24 Feb 12:00:46 12:02:58 16° 91° (E) 12:05:08 437.505
AO-7 24 Feb 12:01:29 12:07:16 21° 34° (NNE) 12:13:02 .
Oscar 19 24 Feb 12:03:29 12:08:19 42° 64° (ENE) 12:13:10 437.125/150
Tancredo 1 24 Feb 12:04:24 12:07:39 71° 182° (S) 12:10:53 437.200
DX 1 24 Feb 12:06:42 12:09:12 15° 88° (E) 12:11:41 434.975-435.025
HO-68 24 Feb 12:08:14 12:10:05 11° 333° (NNW) 12:11:57 435.675
VELOX 1 24 Feb 12:10:30 12:14:28 31° 96° (E) 12:18:26 145.980
AO-85 24 Feb 12:16:29 12:20:23 54° 41° (NE) 12:24:14 145.980
UKube-1 24 Feb 12:21:00 12:23:31 15° 88° (E) 12:26:01 .
DUCHIFAT 1 24 Feb 12:21:48 12:25:08 22° 268° (W) 12:28:31 145.980
BEESAT 3 24 Feb 12:25:54 12:28:44 18° 16° (NNE) 12:31:35 437.485
SPROUT 24 Feb 12:26:42 12:30:44 37° 97° (E) 12:34:44 437.525
EO-79 24 Feb 12:32:10 12:34:53 16° 271° (W) 12:37:37 145.935-145.965
ITAMSAT 1 24 Feb 12:37:24 12:40:17 15° 48° (NE) 12:43:10 435.822/435.867
Gurwin Techsat 1B 24 Feb 12:39:32 12:44:39 50° 65° (ENE) 12:49:47 435.225
POLYITAN 1 24 Feb 12:50:52 12:52:20 11° 275° (W) 12:53:47 437.675
NANOSAT C BR1 24 Feb 12:51:05 12:52:47 12° 274° (W) 12:54:29 145.865
QB50P2 24 Feb 12:55:07 12:55:20 10° 276° (W) 12:55:34 145.880/145.840
BEESAT 2 24 Feb 13:01:43 13:04:37 18° 16° (NNE) 13:07:30 435.950
ISS 24 Feb 13:12:21 13:15:36 52° 195° (SSW) 13:18:49 437.550
ESTCUBE 1 24 Feb 13:17:18 13:21:11 29° 298° (WNW) 13:25:03 437.505/2401.250
BUGSAT 1 24 Feb 13:24:30 13:26:45 14° 272° (W) 13:29:02 437.445
YUBILEINY 24 Feb 13:31:18 13:38:11 25° 309° (NW) 13:45:06 435.215
50 SAT 24 Feb 13:33:00 13:36:23 49° 289° (WNW) 13:39:44 437.505
Tancredo 1 24 Feb 13:40:41 13:43:45 39° 202° (SSW) 13:46:46 437.200
DX 1 24 Feb 13:41:35 13:45:58 80° 287° (WNW) 13:50:18 434.975-435.025
Oscar 19 24 Feb 13:43:01 13:47:44 36° 264° (W) 13:52:29 437.125/150
VELOX 1 24 Feb 13:46:55 13:51:00 38° 295° (WNW) 13:55:05 145.980
AO-7 24 Feb 13:50:21 13:58:25 56° 58° (ENE) 14:06:30 .
UKube-1 24 Feb 13:55:46 14:00:06 79° 287° (WNW) 14:04:25 .
AO-85 24 Feb 13:57:18 14:00:31 24° 241° (WSW) 14:03:43 145.980
SPROUT 24 Feb 14:02:47 14:06:35 31° 296° (WNW) 14:10:22 437.525
BEESAT 3 24 Feb 14:03:19 14:07:14 47° 38° (NE) 14:11:08 437.485
ITAMSAT 1 24 Feb 14:13:41 14:18:51 65° 69° (ENE) 14:24:03 435.822/435.867
Gurwin Techsat 1B 24 Feb 14:20:06 14:24:49 32° 266° (W) 14:29:34 435.225
BEESAT 2 24 Feb 14:39:20 14:43:17 47° 38° (NE) 14:47:13 435.950
ISS 24 Feb 14:49:14 14:51:35 18° 215° (SW) 14:53:54 437.550
ITUPSAT 1 24 Feb 15:11:18 15:16:01 51° 100° (E) 15:20:41 437.325
Tancredo 1 24 Feb 15:18:16 15:19:22 11° 220° (SW) 15:20:27 437.200
BEESAT 24 Feb 15:18:31 15:23:17 60° 102° (ESE) 15:28:01 436.000
DX 1 24 Feb 15:19:11 15:21:29 14° 307° (NW) 15:23:47 434.975-435.025
CUTE-I 24 Feb 15:19:33 15:20:59 11° 43° (NE) 15:22:26 437.470
UKube-1 24 Feb 15:33:16 15:35:28 14° 307° (NW) 15:37:39 .
HO-68 24 Feb 15:37:05 15:39:05 11° 27° (NNE) 15:41:05 435.675
BEESAT 3 24 Feb 15:41:10 15:44:44 31° 239° (WSW) 15:48:18 437.485
AO-7 24 Feb 15:43:22 15:51:22 48° 260° (W) 15:59:25 .
MOZHAYETS 4 24 Feb 15:47:42 15:52:12 48° 99° (E) 15:56:38
ITAMSAT 1 24 Feb 15:54:37 15:58:46 24° 269° (W) 16:02:57 435.822/435.867
PCSat 24 Feb 16:10:25 16:14:46 25° 111° (ESE) 16:19:07 145.827
DOVE 4 24 Feb 16:15:30 16:18:27 19° 58° (ENE) 16:21:27 437.250
BEESAT 2 24 Feb 16:17:20 16:20:58 31° 239° (WSW) 16:24:33 435.950
KAITUO 1B 24 Feb 16:24:08 16:26:32 16° 59° (ENE) 16:28:57 145.475/437.950
KKS-1 24 Feb 16:25:21 16:29:23 32° 96° (E) 16:33:24 437.445
XW-2F 24 Feb 16:26:55 16:29:42 19° 61° (ENE) 16:32:31 145.980 - 146.000
XW-2D 24 Feb 16:30:46 16:33:46 22° 62° (ENE) 16:36:47 145.860 - 145.880
XW-2B 24 Feb 16:35:40 16:38:46 23° 63° (ENE) 16:41:53 145.730 - 145.750
RS-15 24 Feb 16:40:00 16:49:41 30° 102° (ESE) 16:59:35 29.354- 29.394
XW-2C 24 Feb 16:44:00 16:47:19 28° 65° (ENE) 16:50:39 145.795 - 145.815
CUBESAT XI-V 24 Feb 16:44:45 16:48:56 33° 95° (E) 16:53:04 437.345
ITUPSAT 1 24 Feb 16:49:33 16:53:37 28° 300° (WNW) 16:57:41 437.325
CUTE-I 24 Feb 16:54:45 16:59:47 44° 64° (ENE) 17:04:53 437.470
BEESAT 24 Feb 16:56:53 17:00:45 25° 302° (WNW) 17:04:35 436.000
NUDT-PHONESAT 24 Feb 16:58:55 17:02:17 32° 66° (ENE) 17:05:42 437.300
LilacSat-2 24 Feb 16:59:31 17:03:09 40° 68° (ENE) 17:06:50 437.200
STARS 24 Feb 17:01:50 17:05:54 34° 97° (E) 17:09:57 437.465
CUTE 1.7 + AOD 2 24 Feb 17:12:07 17:13:24 11° 52° (NE) 17:14:42 437.475
HO-68 24 Feb 17:18:36 17:24:42 31° 51° (NE) 17:30:48 435.675
MOZHAYETS 4 24 Feb 17:25:14 17:29:10 28° 299° (WNW) 17:33:04
AO-7 24 Feb 17:44:43 17:46:28 11° 283° (WNW) 17:48:12 .
M-CUBED/EXP-1 PRIME 24 Feb 17:46:20 17:49:44 35° 105° (ESE) 17:53:23 437.505
DOVE 4 24 Feb 17:51:40 17:55:46 62° 258° (WSW) 17:59:59 437.250
PCSat 24 Feb 17:52:16 17:57:42 75° 312° (NW) 18:03:10 145.827
KAITUO 1B 24 Feb 17:56:20 18:00:07 67° 257° (WSW) 18:03:58 145.475/437.950
XW-2F 24 Feb 17:59:47 18:03:33 53° 260° (W) 18:07:21 145.980 - 146.000
UWE-3 24 Feb 18:00:17 18:02:04 12° 50° (NE) 18:03:52 435.000/436.395/437.385
KKS-1 24 Feb 18:01:51 18:06:01 38° 295° (WNW) 18:10:10 437.445
AAUSAT CUBESAT 2 24 Feb 18:02:16 18:03:54 12° 54° (NE) 18:05:31 437.432
XW-2D 24 Feb 18:04:01 18:07:44 46° 261° (W) 18:11:29 145.860 - 145.880
SEEDS 24 Feb 18:08:32 18:11:51 23° 61° (ENE) 18:15:11 437.485
XW-2B 24 Feb 18:09:06 18:12:47 42° 262° (W) 18:16:29 145.730 - 145.750
XW-2C 24 Feb 18:17:55 18:21:27 34° 264° (W) 18:25:01 145.795 - 145.815
CUBESAT XI-V 24 Feb 18:22:07 18:26:22 38° 295° (WNW) 18:30:37 437.345
ZACube-1 24 Feb 18:23:04 18:24:55 12° 51° (NE) 18:26:47 437.345
XW-2A 24 Feb 18:24:34 18:27:53 55° 72° (ENE) 18:31:17 145.665 - 145.685
STRAND 1 24 Feb 18:28:14 18:30:51 14° 85° (E) 18:33:28 437.568
NUDT-PHONESAT 24 Feb 18:32:57 18:36:15 28° 265° (W) 18:39:35 437.300
LilacSat-2 24 Feb 18:34:25 18:37:35 24° 267° (W) 18:40:47 437.200
CUTE-I 24 Feb 18:35:03 18:39:57 36° 264° (W) 18:44:55 437.470
NO-84 24 Feb 18:36:09 18:39:25 44° 147° (SSE) 18:43:01 435.350 FM
STARS 24 Feb 18:38:13 18:42:16 35° 296° (WNW) 18:46:18 437.465
CUTE 1.7 + AOD 2 24 Feb 18:44:12 18:48:25 63° 72° (ENE) 18:52:40 437.475
RS-15 24 Feb 18:48:23 19:00:29 82° 128° (SE) 19:12:54 29.354- 29.394
CUBEBUG 2 24 Feb 18:54:23 18:58:37 42° 67° (ENE) 19:03:00 437.445
HO-68 24 Feb 19:04:40 19:11:52 79° 253° (WSW) 19:19:06 435.675
AO-73 24 Feb 19:09:41 19:13:22 25° 61° (ENE) 19:17:07 145.935
Oscar 11 24 Feb 19:17:31 19:21:06 25° 62° (ENE) 19:24:41 .
M-CUBED/EXP-1 PRIME 24 Feb 19:21:03 19:24:10 28° 301° (WNW) 19:27:28 437.505
UWE-3 24 Feb 19:33:10 19:37:36 62° 71° (ENE) 19:42:11 435.000/436.395/437.385
AAUSAT CUBESAT 2 24 Feb 19:34:30 19:38:39 73° 73° (ENE) 19:42:48 437.432
YUBILEINY 24 Feb 19:37:04 19:43:49 24° 50° (NE) 19:50:30 435.215
PCSat 24 Feb 19:37:25 19:41:58 26° 335° (NNW) 19:46:32 145.827
DELFI C3 24 Feb 19:40:47 19:43:06 15° 57° (ENE) 19:45:25 145.870
SEEDS 24 Feb 19:43:08 19:47:16 52° 260° (W) 19:51:26 437.485
ZACube-1 24 Feb 19:55:53 20:00:20 64° 71° (ENE) 20:04:53 437.345
XW-2A 24 Feb 19:59:09 20:01:02 14° 271° (W) 20:02:55 145.665 - 145.685
STRAND 1 24 Feb 20:05:43 20:10:55 78° 104° (ESE) 20:16:05 437.568
NO-84 24 Feb 20:13:26 20:17:01 70° 349° (N) 20:20:59 435.350 FM
CUTE 1.7 + AOD 2 24 Feb 20:21:43 20:24:41 18° 271° (W) 20:27:40 437.475
CUBEBUG 2 24 Feb 20:31:26 20:35:23 30° 267° (W) 20:39:27 437.445
AO-73 24 Feb 20:44:57 20:49:20 52° 261° (W) 20:53:49 145.935
Oscar 11 24 Feb 20:52:48 20:57:01 48° 261° (W) 21:01:16 .
HO-68 24 Feb 20:55:52 21:00:46 19° 275° (W) 21:05:42 435.675
RS-15 24 Feb 21:02:07 21:14:08 55° 338° (NNW) 21:26:17 29.354- 29.394
UWE-3 24 Feb 21:11:06 21:14:29 20° 271° (W) 21:17:57 435.000/436.395/437.385
ESTCUBE 1 24 Feb 21:11:07 21:13:37 15° 53° (NE) 21:16:08 437.505/2401.250
AAUSAT CUBESAT 2 24 Feb 21:12:10 21:14:37 15° 272° (W) 21:17:04 437.432
DELFI C3 24 Feb 21:13:27 21:17:25 78° 257° (WSW) 21:21:24 145.870
PCSat 24 Feb 21:23:27 21:27:11 18° 1° (N) 21:30:55 145.827
UNISAT 6 24 Feb 21:26:43 21:29:48 17° 87° (E) 21:32:52 437.425
TIGRISAT 24 Feb 21:27:19 21:30:16 16° 87° (E) 21:33:12 435.000
PRISM 24 Feb 21:28:11 21:31:47 29° 96° (E) 21:35:22 437.425
YUBILEINY 24 Feb 21:33:33 21:42:22 76° 76° (ENE) 21:51:04 435.215
ZACube-1 24 Feb 21:33:46 21:37:03 20° 271° (W) 21:40:24 437.345
VELOX 1 24 Feb 21:40:44 21:41:57 11° 50° (NE) 21:43:10 145.980
STRAND 1 24 Feb 21:45:41 21:49:36 22° 305° (NW) 21:53:29 437.568
NO-84 24 Feb 21:51:11 21:54:58 69° 10° (N) 21:59:06 435.350 FM
SPROUT 24 Feb 21:53:30 21:54:39 11° 51° (NE) 21:55:49 437.525
SO-50 24 Feb 22:33:48 22:37:49 29° 120° (ESE) 22:41:48 436.795
FO-29 24 Feb 22:35:34 22:42:55 42° 93° (E) 22:49:41 435.910
50 SAT 24 Feb 22:40:38 22:43:05 18° 61° (ENE) 22:45:31 437.505
ESTCUBE 1 24 Feb 22:45:14 22:49:45 81° 74° (ENE) 22:54:17 437.505/2401.250
POLYITAN 1 24 Feb 22:52:17 22:53:45 11° 85° (E) 22:55:12 437.675
NANOSAT C BR1 24 Feb 22:52:52 22:53:43 10° 84° (E) 22:54:34 145.865
QB50P2 24 Feb 22:54:46 22:56:46 13° 86° (E) 22:58:47 145.880/145.840
UNISAT 6 24 Feb 23:02:21 23:07:05 78° 286° (WNW) 23:11:46 437.425
TIGRISAT 24 Feb 23:02:49 23:07:34 82° 285° (WNW) 23:12:16 435.000
PRISM 24 Feb 23:03:24 23:07:08 35° 295° (WNW) 23:10:51 437.425
AIST 2D 24 Feb 23:05:35 23:08:19 20° 92° (E) 23:11:02 435.315
DX 1 24 Feb 23:07:23 23:11:05 28° 62° (ENE) 23:14:47 434.975-435.025
PCSat 24 Feb 23:07:45 23:12:23 27° 26° (NNE) 23:17:00 145.827
VELOX 1 24 Feb 23:13:14 23:17:32 58° 70° (ENE) 23:21:52 145.980
RS-15 24 Feb 23:17:33 23:29:32 50° 11° (N) 23:41:21 29.354- 29.394
O/OREOS (USA 219) 24 Feb 23:19:28 23:23:50 53° 113° (ESE) 23:28:14 437.305
UKube-1 24 Feb 23:20:38 23:24:19 28° 62° (ENE) 23:27:59 .
SPROUT 24 Feb 23:25:32 23:29:43 61° 71° (ENE) 23:33:58 437.525
NO-84 24 Feb 23:28:48 23:32:43 54° 209° (SSW) 23:36:53 435.350 FM
YUBILEINY 24 Feb 23:31:05 23:38:26 32° 280° (W) 23:45:44 435.215
DUCHIFAT 1 24 Feb 23:58:31 00:02:32 38° 97° (E) 00:06:32 145.980
EO-79 25 Feb 00:08:35 00:12:50 55° 101° (E) 00:17:03 145.935-145.965
50 SAT 25 Feb 00:12:32 00:15:56 47° 260° (W) 00:19:20 437.505
SO-50 25 Feb 00:13:26 00:18:03 60° 320° (NW) 00:22:37 436.795
FO-29 25 Feb 00:20:34 00:28:11 57° 296° (WNW) 00:35:15 435.910
ESTCUBE 1 25 Feb 00:24:27 00:27:09 15° 273° (W) 00:29:50 437.505/2401.250
NANOSAT C BR1 25 Feb 00:25:54 00:30:13 75° 104° (ESE) 00:34:29 145.865
POLYITAN 1 25 Feb 00:25:55 00:30:16 81° 104° (ESE) 00:34:34 437.675
QB50P2 25 Feb 00:28:53 00:33:13 89° 285° (WNW) 00:37:31 145.880/145.840
AIST 2D 25 Feb 00:38:22 00:41:44 39° 291° (WNW) 00:45:04 435.315
UNISAT 6 25 Feb 00:40:21 00:43:04 15° 307° (NW) 00:45:46 437.425
TIGRISAT 25 Feb 00:40:43 00:43:34 16° 306° (NW) 00:46:23 435.000
DX 1 25 Feb 00:43:01 00:47:08 42° 261° (W) 00:51:17 434.975-435.025
ITUPSAT 1 25 Feb 00:47:37 00:51:15 22° 56° (NE) 00:54:53 437.325
VELOX 1 25 Feb 00:51:06 00:54:22 20° 269° (W) 00:57:39 145.980
PCSat 25 Feb 00:51:07 00:56:36 79° 50° (NE) 01:02:02 145.827
Gurwin Techsat 1B 25 Feb 00:51:25 00:53:22 12° 83° (E) 00:55:19 435.225
BEESAT 25 Feb 00:54:17 00:58:06 24° 58° (ENE) 01:01:56 436.000
UKube-1 25 Feb 00:56:07 01:00:12 42° 261° (W) 01:04:20 .
BUGSAT 1 25 Feb 00:57:33 01:01:44 56° 101° (E) 01:05:55 437.445
O/OREOS (USA 219) 25 Feb 00:59:37 01:03:31 28° 314° (NW) 01:07:28 437.305
SPROUT 25 Feb 01:03:01 01:06:03 19° 270° (W) 01:09:06 437.525
NO-84 25 Feb 01:07:24 01:09:50 15° 228° (SW) 01:12:21 435.350 FM
MOZHAYETS 4 25 Feb 01:20:17 01:23:12 17° 55° (NE) 01:26:09
RS-15 25 Feb 01:31:29 01:44:00 79° 42° (NE) 01:56:05 29.354- 29.394
DUCHIFAT 1 25 Feb 01:34:24 01:38:08 30° 297° (WNW) 01:41:51 145.980
EO-79 25 Feb 01:44:57 01:48:18 22° 300° (WNW) 01:51:37 145.935-145.965
Oscar 19 25 Feb 01:47:38 01:52:39 51° 100° (E) 01:57:38 437.125/150
SO-50 25 Feb 01:55:37 01:59:21 23° 342° (NNW) 02:03:02 436.795
KKS-1 25 Feb 01:55:59 01:57:32 12° 50° (NE) 01:59:05 437.445
NANOSAT C BR1 25 Feb 02:02:35 02:05:26 18° 303° (WNW) 02:08:17 145.865
POLYITAN 1 25 Feb 02:02:46 02:05:31 17° 304° (NW) 02:08:16 437.675
QB50P2 25 Feb 02:05:56 02:08:25 15° 305° (NW) 02:10:54 145.880/145.840
FO-29 25 Feb 02:06:30 02:11:39 20° 319° (NW) 02:16:39 435.910
CUBESAT XI-V 25 Feb 02:19:40 02:21:36 13° 51° (NE) 02:23:33 437.345
ITAMSAT 1 25 Feb 02:21:43 02:24:31 14° 85° (E) 02:27:18 435.822/435.867
ITUPSAT 1 25 Feb 02:23:49 02:28:38 72° 256° (WSW) 02:33:29 437.325
Gurwin Techsat 1B 25 Feb 02:29:03 02:34:23 66° 103° (ESE) 02:39:40 435.225
BEESAT 25 Feb 02:30:47 02:35:32 62° 258° (WSW) 02:40:19 436.000
STARS 25 Feb 02:31:02 02:32:42 12° 50° (NE) 02:34:22 437.465
BUGSAT 1 25 Feb 02:33:32 02:36:48 22° 300° (WNW) 02:40:04 437.445
PCSat 25 Feb 02:35:14 02:39:27 23° 250° (WSW) 02:43:38 145.827
